Location: D�rnast
(49.6426°N, 11.9755°E)
Time: 13:37:53
(UTC+00:00)

Cosmos 1892 Rocket - Pass Details

Date: 24 January 2021
Orbit: 607 x 632 km, 82.5° (Epoch: 26 February)

Event Time Altitude Azimuth Distance (km) Brightness Sun altitude
Rises 16:25:53 0° 173° (S) 2,859 7.2 -5.4°
Reaches altitude 10° 16:28:08 10° 168° (SSE) 1,957 6.3 -5.7°
Maximum altitude 16:32:18 48° 94° (E) 796 3.8 -6.4°
Drops below altitude 10° 16:36:29 10° 20° (NNE) 1,970 5.8 -7.0°
Sets 16:38:46 0° 15° (NNE) 2,879 6.6 -7.3°
